• Join FlightAware (Why Join?)
  • Login
  • US Flag 
08:52AM EDT


 

Airport Tracker/Info


-or-


 

Live Flight TrackerFlight Track Log ✈ UCA9879 ✈ 12 de Mar de 2014 ✈ KUNV - KCLE

Flight Track Log - Related Links

Times and Time Zones

All times are in EDT time to prevent confusion due to time zone crossing. See the UCA9879 flight status page for this flight to view local times or setup timezone preferences in your user account.

Time Position Orientation Groundspeed Altitude Reporting Facility
EDT Latitude Longitude Course Direction KTS MPH feet Rate Location/Type
11:12PM 40.8639 -77.8589 105° East 242 278 16,000  Level New York Center
11:13PM 40.8525 -77.8028 105° East 210 242 16,000 -6,720 Level New York Center
11:14PM 40.8094 -77.9011 240° Southwest 188 216 3,900 -5,580 Descending Cleveland Center
11:15PM 40.8253 -77.9431 297° West 152 175 5,900 1,860 Climbing Cleveland Center
11:16PM 40.8653 -77.9628 340° North 151 174 7,700 1,560 Climbing Cleveland Center
11:17PM 40.8978 -78.0011 318° Northwest 175 201 9,100 1,320 Climbing Cleveland Center
11:18PM 40.9142 -78.0675 288° West 192 221 10,500 1,500 Climbing Cleveland Center
11:19PM 40.9272 -78.1367 284° West 195 224 12,200 1,560 Climbing Cleveland Center
11:20PM 40.9414 -78.2000 287° West 184 212 13,700 1,320 Climbing Cleveland Center
11:21PM 40.9561 -78.2708 285° West 190 219 15,000 1,080 Climbing Cleveland Center
11:22PM 40.9717 -78.3431 286° West 201 231 16,000 480 Climbing Cleveland Center
11:23PM 40.9889 -78.4253 286° West 226 260 16,000  Level Cleveland Center
11:24PM 41.0067 -78.5106 285° West 236 272 16,000  Level Cleveland Center
11:25PM 41.0225 -78.5953 284° West 237 273 16,000  Level Cleveland Center
11:26PM 41.0439 -78.6972 286° West 240 276 16,000  Level Cleveland Center
11:27PM 41.0617 -78.7850 285° West 245 282 16,000  Level Cleveland Center
11:28PM 41.0789 -78.8697 285° West 244 281 16,000  Level Cleveland Center
11:29PM 41.0961 -78.9567 285° West 243 280 16,000  Level Cleveland Center
11:30PM 41.1139 -79.0431 285° West 243 280 16,000  Level Cleveland Center
11:31PM 41.1322 -79.1350 285° West 244 281 16,000  Level Cleveland Center
11:32PM 41.1500 -79.2225 285° West 247 284 16,000  Level Cleveland Center
11:33PM 41.1669 -79.3056 285° West 246 283 16,000  Level Cleveland Center
11:34PM 41.1844 -79.3939 285° West 247 284 16,000  Level Cleveland Center
11:35PM 41.2006 -79.4806 284° West 246 283 16,000  Level Cleveland Center
11:36PM 41.2181 -79.5681 285° West 246 283 16,000  Level Cleveland Center
11:37PM 41.2356 -79.6594 284° West 246 283 16,100 -60 Climbing Cleveland Center
11:38PM 41.2533 -79.7478 285° West 247 284 15,900 -120 Descending Cleveland Center
11:39PM 41.2700 -79.8375 284° West 248 285 15,900  Level Cleveland Center
11:40PM 41.2911 -79.9439 285° West 249 287 15,900  Level Cleveland Center
11:41PM 41.3078 -80.0292 285° West 249 287 15,900  Level Cleveland Center
11:42PM 41.3233 -80.1178 283° West 249 287 15,900  Level Cleveland Center
11:43PM 41.3414 -80.2058 285° West 249 287 15,900  Level Cleveland Center
11:44PM 41.3578 -80.2944 284° West 249 287 15,900 -300 Level Cleveland Center
11:45PM 41.3756 -80.3864 284° West 248 285 15,400 -660 Descending Cleveland Center
11:46PM 41.3922 -80.4758 284° West 248 285 14,600 -840 Descending Cleveland Center
11:47PM 41.4089 -80.5633 284° West 245 282 13,700 -900 Descending Cleveland Center
11:48PM 41.4247 -80.6500 284° West 242 278 12,800 -900 Descending Cleveland Center
11:49PM 41.4403 -80.7347 284° West 236 272 12,000 -840 Descending Cleveland Center
11:50PM 41.4475 -80.7772 283° West 232 267 11,600 -900 Descending Cleveland Center
11:50PM 41.4561 -80.8189 285° West 235 270 11,100 -1,020 Descending Cleveland Center
11:51PM 41.4619 -80.8547 282° West 231 266 10,700 -900 Descending Cleveland Center
11:51PM 41.4697 -80.9031 282° West 233 268 10,200 -900 Descending Cleveland Center
11:52PM 41.4761 -80.9375 284° West 229 264 9,800 -900 Descending Cleveland Center
11:52PM 41.4858 -80.9856 285° West 231 266 9,300 -720 Descending Cleveland Center
11:53PM 41.4900 -81.0206 279° West 229 264 9,100 -240 Descending Cleveland Center
11:53PM 41.5008 -81.0658 288° West 224 258 9,100 -120 Level Cleveland Center
11:54PM 41.5047 -81.0953 280° West 212 244 9,000  Descending Cleveland Center
11:54PM 41.5042 -81.1453 269° West 219 252 9,100 60 Climbing Cleveland Center
11:55PM 41.4886 -81.1822 241° Southwest 240 276 9,100 -120 Level Cleveland Center
11:55PM 41.4722 -81.2239 242° Southwest 238 274 9,000 -120 Descending Cleveland Center
11:56PM 41.4567 -81.2608 241° Southwest 250 288 9,000 -240 Level Cleveland Center
11:56PM 41.4394 -81.3047 242° Southwest 240 276 8,800 -600 Descending Cleveland Center
11:57PM 41.4244 -81.3425 242° Southwest 247 284 8,400 -900 Descending Cleveland Center
11:57PM 41.4061 -81.3856 240° Southwest 244 281 7,900 -900 Descending Cleveland Center
11:58PM 41.3922 -81.4211 243° Southwest 240 276 7,500 -900 Descending Cleveland Center
11:58PM 41.3778 -81.4622 245° Southwest 236 272 7,000 -1,020 Descending Cleveland Center
11:59PM 41.3642 -81.5003 245° Southwest 218 251 6,400 -1,200 Descending Cleveland Center
11:59PM 41.3508 -81.5364 244° Southwest 227 261 5,800 -1,200 Descending Cleveland Center
12:00AM 41.3372 -81.5683 240° Southwest 231 266 5,300 -1,200 Descending Cleveland Center
12:00AM 41.3208 -81.6128 244° Southwest 226 260 4,600 -1,200 Descending Cleveland Center
12:01AM 41.3094 -81.6419 243° Southwest 223 257 4,100 -600 Descending Cleveland Center
12:01AM 41.2972 -81.6747 244° Southwest 225 259 4,000 -120 Descending Cleveland Center
12:02AM 41.2817 -81.7156 243° Southwest 216 249 4,000  Level Cleveland Center
12:02AM 41.2686 -81.7656 251° West 221 254 4,000  Level Cleveland Center
12:03AM 41.2603 -81.7900 246° West 215 247 4,000  Level Cleveland Center
12:03AM 41.2461 -81.8417 250° West 220 253 4,000 -120 Level Cleveland Center
12:04AM 41.2383 -81.8672 248° West 220 253 3,900  Descending Cleveland Center
12:04AM 41.2308 -81.9183 259° West 218 251 4,000 60 Climbing Cleveland Center
12:05AM 41.2272 -81.9431 259° West 214 246 4,000  Level Cleveland Center
12:05AM 41.2197 -81.9972 260° West 215 247 4,000  Level Cleveland Center
12:06AM 41.2156 -82.0219 257° West 212 244 4,000  Level Cleveland Center
12:06AM 41.2175 -82.0725 273° West 215 247 4,000  Level Cleveland Center
12:07AM 41.2306 -82.0856 323° Northwest 192 221 4,000 -540 Level Cleveland Center
12:07AM 41.2561 -82.0781 12° North 198 228 3,500 -900 Descending Cleveland Center
12:08AM 41.2769 -82.0600 33° Northeast 191 220 3,100 -540 Descending Cleveland Center
12:08AM 41.2992 -82.0336 42° Northeast 197 227 3,000 -120 Descending Cleveland Center
12:09AM 41.3108 -82.0125 54° Northeast 175 201 3,000  Level Cleveland Center
12:09AM 41.3281 -81.9869 48° Northeast 175 201 3,000 -240 Level Cleveland Center
12:10AM 41.3403 -81.9672 50° Northeast 145 167 2,800 -600 Descending Cleveland Center
12:10AM 41.3519 -81.9497 48° Northeast 148 170 2,400 -720 Descending Cleveland Center
12:11AM 41.3603 -81.9344 54° Northeast 111 128 2,100 -720 Descending Cleveland Center
12:11AM 41.3717 -81.9192 45° Northeast 122 140 1,700 -720 Descending Cleveland Center
12:12AM 41.3800 -81.9042 53° Northeast 123 142 1,400 -600 Descending Cleveland Center
12:12AM 41.3919 -81.8878 46° Northeast 114 131 1,100 -360 Descending Cleveland Center
12:13AM 41.4078 -81.8636 49° Northeast 94 108 800 -300 Descending Cleveland Center